Latest Weather Observations for Fowlers Gap

IDN60801

Issued at 10:35 am EDT Wednesday 22 October 2014 (issued every 30 minutes, with the page automatically refreshed every 10 minutes)

About weather observations | Map of weather stations | Latest weather observations for NSW | Other Formats
Station Details ID: 046128 Name: FOWLERS GAP AWS Lat: -31.09 Lon: 141.70 Height: 181.0 m
Data from the previous 72 hours. | See also: Recent months at Fowlers Gap
Date/Time
EDT
Temp
°C
App
Temp
°C
Dew
Point
Rel
Hum
%
Delta-T
°C
Wind Press
QNH
hPa
Press
MSL
hPa
Rain
since 9 am
mm
Dir
 
Spd
km/h
Gust
km/h
Spd
kts
Gust
kts
22/10:30am 34.1 27.8 1.8 13 16.4 N 24 33 13 18 1018.1 1017.6 0.0
22/10:00am 32.1 26.4 3.1 16 14.9 N 22 30 12 16 1018.2 1017.7 0.0
22/09:30am 31.9 25.5 3.0 16 14.8 N 26 35 14 19 1018.0 1017.5 0.0
22/09:00am 31.7 25.2 2.8 16 14.7 N 26 33 14 18 1017.9 1017.4 0.0
22/08:30am 28.2 25.8 5.1 23 12.0 NNW 7 17 4 9 1017.9 1017.4 0.0
22/08:00am 22.6 21.4 4.6 31 8.9 CALM 0 0 0 0 1017.7 1017.1 0.0
22/07:30am 22.6 19.2 4.2 30 9.1 SSW 11 13 6 7 1017.5 1016.9 0.0
22/07:00am 21.7 20.0 3.9 31 8.7 SW 2 7 1 4 1017.0 1016.4 0.0
22/06:30am 22.9 21.1 3.4 28 9.5 WSW 2 7 1 4 1016.8 1016.2 0.0
22/06:00am 24.3 21.2 3.6 26 10.2 ENE 9 13 5 7 1016.7 1016.1 0.0
22/05:30am 25.9 23.1 3.2 23 11.2 ESE 7 13 4 7 1016.6 1016.0 0.0
22/05:00am 25.0 22.8 3.6 25 10.6 W 4 7 2 4 1016.6 1016.0 0.0
22/04:30am 23.7 20.8 2.5 25 10.2 ENE 7 9 4 5 1016.6 1016.0 0.0
22/04:00am 23.9 21.1 2.1 24 10.4 E 6 7 3 4 1016.7 1016.1 0.0
22/03:30am 24.3 20.9 1.9 23 10.7 E 9 11 5 6 1017.0 1016.4 0.0
22/03:00am 25.2 22.4 2.0 22 11.2 NNE 6 7 3 4 1017.3 1016.7 0.0
22/02:30am 26.5 22.7 1.7 20 12.0 NE 11 13 6 7 1017.6 1017.0 0.0
22/02:00am 27.1 22.9 1.5 19 12.4 ENE 13 17 7 9 1017.7 1017.1 0.0
22/01:30am 25.1 22.4 2.5 23 11.0 NNW 6 6 3 3 1018.1 1017.6 0.0
22/01:00am 26.2 24.6 2.2 21 11.7 CALM 0 9 0 5 1018.4 1017.9 0.0
22/12:30am 26.8 24.0 2.0 20 12.1 NW 6 11 3 6 1018.7 1018.2 0.0
22/12:00am 27.0 25.0 2.1 20 12.2 ENE 2 6 1 3 1018.8 1018.3 0.0
 
Date/Time
EDT
Temp
°C
App
Temp
°C
Dew
Point
Rel
Hum
%
Delta-T
°C
Wind Press
QNH
hPa
Press
MSL
hPa
Rain
since 9 am
mm
Dir
 
Spd
km/h
Gust
km/h
Spd
kts
Gust
kts
21/11:30pm 27.8 23.7 2.1 19 12.6 WSW 13 17 7 9 1018.9 1018.4 0.0
21/11:00pm 27.3 24.4 1.7 19 12.4 S 6 9 3 5 1018.9 1018.4 0.0
21/10:30pm 28.5 25.5 1.1 17 13.3 W 6 9 3 5 1018.8 1018.3 0.0
21/10:00pm 30.4 28.4 -0.1 14 14.7 CALM 0 0 0 0 1018.7 1018.2 0.0
21/09:30pm 31.3 27.3 0.6 14 15.1 W 11 20 6 11 1018.7 1018.2 0.0
21/09:00pm 33.1 28.6 -0.1 12 16.3 NNE 13 17 7 9 1018.3 1017.8 0.0
21/08:30pm 32.9 28.4 -0.2 12 16.2 NNE 13 15 7 8 1018.0 1017.5 0.0
21/08:00pm 32.7 29.3 -0.4 12 16.1 N 7 11 4 6 1017.8 1017.2 0.0
21/07:30pm 34.8 30.7 -2.7 9 17.8 NNW 9 13 5 7 1017.6 1017.0 0.0
21/07:00pm 35.6 31.6 -2.1 9 18.2 N 9 15 5 8 1017.4 1016.8 0.0
21/06:30pm 36.5 31.9 -1.4 9 18.6 N 13 20 7 11 1017.3 1016.7 0.0
21/06:00pm 36.6 32.0 -1.4 9 18.7 N 13 15 7 8 1017.4 1016.8 0.0
21/05:30pm 36.6 32.3 -1.4 9 18.7 NNE 11 19 6 10 1017.3 1016.7 0.0
21/05:00pm 37.2 33.8 -0.9 9 18.9 WSW 7 13 4 7 1017.3 1016.7 0.0
21/04:30pm 37.0 32.0 -1.1 9 18.9 NW 15 20 8 11 1017.5 1016.9 0.0
21/04:00pm 36.8 32.9 -1.2 9 18.7 S 9 20 5 11 1017.8 1017.2 0.0
21/03:30pm 36.8 31.4 -1.2 9 18.8 NNW 17 26 9 14 1018.1 1017.6 0.0
21/03:00pm 36.7 32.1 -1.3 9 18.7 NE 13 28 7 15 1018.5 1018.0 0.0
21/02:30pm 36.2 31.0 -0.2 10 18.2 N 17 26 9 14 1019.1 1018.6 0.0
21/02:00pm 36.4 32.5 -1.5 9 18.5 E 9 17 5 9 1019.3 1018.8 0.0
21/01:30pm 35.7 31.4 -2.0 9 18.3 WNW 11 17 6 9 1019.8 1019.3 0.0
21/01:00pm 36.0 30.3 -0.4 10 18.1 NNE 19 30 10 16 1020.1 1019.6 0.0
21/12:30pm 35.6 30.1 0.6 11 17.7 NNE 19 28 10 15 1020.6 1020.1 0.0
21/12:00pm 35.2 29.6 1.5 12 17.2 NNE 20 26 11 14 1021.0 1020.4 0.0
21/11:30am 34.4 29.5 2.0 13 16.6 NE 17 24 9 13 1021.4 1020.8 0.0
21/11:00am 32.8 27.9 1.8 14 15.6 NNE 17 24 9 13 1021.7 1021.1 0.0
21/10:30am 31.3 27.1 1.6 15 14.8 NE 13 20 7 11 1021.8 1021.2 0.0
21/10:00am 29.4 25.1 1.0 16 13.8 ENE 13 17 7 9 1021.8 1021.2 0.0
21/09:30am 27.9 24.0 1.4 18 12.9 ENE 11 15 6 8 1021.9 1021.3 0.0
21/09:00am 26.4 22.1 0.9 19 12.1 E 13 17 7 9 1021.9 1021.3 0.0
21/08:30am 25.5 21.6 0.9 20 11.7 E 11 17 6 9 1021.7 1021.1 0.0
21/08:00am 21.2 18.9 2.5 29 8.8 SSE 4 7 2 4 1021.5 1020.9 0.0
21/07:30am 19.2 16.3 1.2 30 8.2 SSE 6 7 3 4 1021.2 1020.6 0.0
21/07:00am 18.8 15.2 0.4 29 8.2 SSE 9 11 5 6 1021.0 1020.4 0.0
21/06:30am 19.2 15.9 0.3 28 8.4 SSE 7 11 4 6 1020.5 1020.0 0.0
21/06:00am 20.0 16.7 -0.1 26 8.9 S 7 9 4 5 1020.2 1019.7 0.0
21/05:30am 22.8 19.0 -0.6 21 10.6 E 9 11 5 6 1020.0 1019.5 0.0
21/05:00am 24.7 20.6 -0.4 19 11.5 E 11 17 6 9 1019.9 1019.4 0.0
21/04:30am 24.4 19.8 -0.7 19 11.4 E 13 19 7 10 1019.9 1019.4 0.0
21/04:00am 25.7 21.2 -0.4 18 12.1 E 13 20 7 11 1019.9 1019.4 0.0
21/03:30am 24.9 21.2 -0.3 19 11.6 ESE 9 15 5 8 1020.0 1019.5 0.0
21/03:00am 23.3 20.1 -0.2 21 10.7 SSW 6 7 3 4 1020.2 1019.7 0.0
21/02:30am 21.9 19.5 -0.1 23 9.9 SSW 2 6 1 3 1020.2 1019.7 0.0
21/02:00am 21.9 18.8 -0.1 23 9.9 SW 6 7 3 4 1020.5 1020.0 0.0
21/01:30am 23.4 20.3 -0.1 21 10.8 SSW 6 7 3 4 1020.7 1020.2 0.0
21/01:00am 25.8 22.0 -1.1 17 12.3 SE 9 11 5 6 1021.0 1020.4 0.0
21/12:30am 26.5 22.4 -0.5 17 12.6 SE 11 15 6 8 1021.0 1020.4 0.0
21/12:00am 27.7 22.3 -1.3 15 13.4 SE 17 20 9 11 1021.0 1020.4 0.0
 
Date/Time
EDT
Temp
°C
App
Temp
°C
Dew
Point
Rel
Hum
%
Delta-T
°C
Wind Press
QNH
hPa
Press
MSL
hPa
Rain
since 9 am
mm
Dir
 
Spd
km/h
Gust
km/h
Spd
kts
Gust
kts
20/11:30pm 27.5 22.5 -1.4 15 13.3 SE 15 19 8 10 1021.0 1020.4 0.0
20/11:00pm 27.9 23.3 -1.1 15 13.4 SSE 13 17 7 9 1021.1 1020.5 0.0
20/10:30pm 29.0 24.0 -1.2 14 14.1 SE 15 19 8 10 1021.0 1020.4 0.0
20/10:00pm 30.0 24.6 -1.4 13 14.7 SE 17 20 9 11 1020.7 1020.2 0.0
20/09:30pm 30.6 25.1 -2.0 12 15.2 SE 17 24 9 13 1020.5 1020.0 0.0
20/09:00pm 31.3 26.1 -2.6 11 15.7 SE 15 17 8 9 1020.1 1019.6 0.0
20/08:30pm 31.6 26.4 -2.4 11 15.9 SE 15 20 8 11 1019.7 1019.2 0.0
20/08:00pm 32.1 27.4 -2.0 11 16.1 SE 13 17 7 9 1019.5 1019.0 0.0
20/07:30pm 33.3 28.1 -2.4 10 16.9 ESE 15 17 8 9 1019.2 1018.7 0.0
20/07:00pm 34.0 29.7 -1.9 10 17.2 ESE 11 17 6 9 1018.8 1018.3 0.0
20/06:30pm 34.5 30.4 -2.9 9 17.7 E 9 15 5 8 1018.8 1018.3 0.0
20/06:00pm 34.7 29.5 -2.8 9 17.8 ENE 15 22 8 12 1018.7 1018.2 0.0
20/05:30pm 34.9 30.1 -2.6 9 17.9 ENE 13 19 7 10 1018.7 1018.2 0.0
20/05:00pm 35.2 31.6 -2.4 9 18.0 N 7 15 4 8 1018.8 1018.3 0.0
20/04:30pm 35.3 31.3 -2.3 9 18.1 NNE 9 15 5 8 1019.0 1018.5 0.0
20/04:00pm 36.0 31.3 -1.8 9 18.4 NW 13 17 7 9 1019.3 1018.8 0.0
20/03:30pm 35.9 31.2 -1.9 9 18.4 NE 13 20 7 11 1019.5 1019.0 0.0
20/03:00pm 35.5 30.7 -2.2 9 18.1 NE 13 20 7 11 1019.9 1019.4 0.0
20/02:30pm 35.7 31.4 -2.0 9 18.3 NNW 11 20 6 11 1020.5 1020.0 0.0
20/02:00pm 34.7 29.9 -2.8 9 17.7 NE 13 19 7 10 1021.1 1020.5 0.0
20/01:30pm 35.0 31.3 -2.6 9 17.9 N 7 9 4 5 1021.5 1020.9 0.0
20/01:00pm 34.4 29.9 -3.0 9 17.6 NE 11 20 6 11 1021.9 1021.3 0.0
20/12:30pm 33.9 28.4 -2.0 10 17.2 E 17 22 9 12 1022.2 1021.6 0.0
20/12:00pm 33.8 28.7 -2.0 10 17.0 ENE 15 28 8 15 1022.6 1022.0 0.0
20/11:30am 33.2 27.8 -1.2 11 16.6 ENE 17 24 9 13 1022.9 1022.4 0.0
20/11:00am 32.3 27.7 -0.7 12 15.9 ENE 13 19 7 10 1023.1 1022.6 0.0
20/10:30am 30.9 27.3 0.3 14 14.9 E 9 13 5 7 1023.3 1022.8 0.0
20/10:00am 29.1 25.7 1.6 17 13.5 ENE 9 15 5 8 1023.3 1022.8 0.0
20/09:30am 26.9 23.3 0.6 18 12.5 ENE 9 13 5 7 1023.2 1022.7 0.0
20/09:00am 23.8 22.1 2.0 24 10.4 CALM 0 0 0 0 1022.8 1022.3 0.0
20/08:30am 20.6 18.8 1.0 27 9.0 CALM 0 0 0 0 1022.6 1022.0 0.0
20/08:00am 17.4 15.6 1.0 33 7.3 CALM 0 0 0 0 1022.4 1021.8 0.0
20/07:30am 14.4 12.5 0.6 39 5.9 CALM 0 0 0 0 1022.2 1021.6 0.0
20/07:00am 14.3 12.3 -0.2 37 6.1 CALM 0 0 0 0 1021.7 1021.1 0.0
20/06:30am 14.8 12.8 -0.1 36 6.3 CALM 0 0 0 0 1021.6 1021.0 0.0
20/06:00am 15.7 12.9 -0.5 33 6.9 SW 4 11 2 6 1021.3 1020.7 0.0
20/05:30am 15.6 13.7 0.6 36 6.5 CALM 0 0 0 0 1020.9 1020.3 0.0
20/05:00am 16.1 12.8 -0.2 33 7.0 WNW 7 7 4 4 1020.7 1020.2 0.0
20/04:30am 16.1 14.1 -0.2 33 7.0 CALM 0 0 0 0 1020.7 1020.2 0.0
20/04:00am 16.7 14.8 0.4 33 7.1 CALM 0 0 0 0 1020.9 1020.3 0.0
20/03:30am 17.4 14.2 -0.8 29 7.8 WSW 6 7 3 4 1020.7 1020.2 0.0
20/03:00am 17.1 15.1 -0.1 31 7.4 CALM 0 0 0 0 1020.9 1020.3 0.0
20/02:30am 17.4 15.4 0.1 31 7.6 CALM 0 0 0 0 1021.1 1020.5 0.0
20/02:00am 18.0 16.0 -0.3 29 7.9 CALM 0 0 0 0 1021.5 1020.9 0.0
20/01:30am 18.6 16.6 -0.2 28 8.2 CALM 0 0 0 0 1021.5 1020.9 0.0
20/01:00am 19.0 17.1 0.6 29 8.2 CALM 0 0 0 0 1021.6 1021.0 0.0
20/12:30am 19.5 17.4 -0.5 26 8.8 CALM 0 0 0 0 1021.8 1021.2 0.0
20/12:00am 19.8 17.7 -0.8 25 9.0 CALM 0 0 0 0 1021.9 1021.3 0.0
 
Date/Time
EDT
Temp
°C
App
Temp
°C
Dew
Point
Rel
Hum
%
Delta-T
°C
Wind Press
QNH
hPa
Press
MSL
hPa
Rain
since 9 am
mm
Dir
 
Spd
km/h
Gust
km/h
Spd
kts
Gust
kts
19/11:30pm 20.4 18.2 -1.4 23 9.5 CALM 0 0 0 0 1021.9 1021.3 0.0
19/11:00pm 21.0 18.9 -0.9 23 9.6 CALM 0 0 0 0 1021.9 1021.3 0.0
19/10:30pm 21.2 19.0 -1.3 22 9.9 CALM 0 0 0 0 1021.8 1021.2 0.0
19/10:00pm 22.3 18.5 -1.1 21 10.4 SW 9 11 5 6 1021.7 1021.1 0.0
19/09:30pm 23.0 19.7 -1.1 20 10.8 NW 6 9 3 5 1021.5 1020.9 0.0
19/09:00pm 24.1 21.9 -1.7 18 11.5 CALM 0 0 0 0 1021.3 1020.7 0.0
19/08:30pm 26.1 23.8 -2.5 15 12.8 CALM 0 0 0 0 1021.0 1020.4 0.0
19/08:00pm 28.7 25.1 -3.5 12 14.4 NNE 6 9 3 5 1020.5 1020.0 0.0
19/07:30pm 30.7 27.0 -4.4 10 15.7 N 6 7 3 4 1020.1 1019.6 0.0
19/07:00pm 32.0 27.3 -4.8 9 16.5 N 11 15 6 8 1019.7 1019.2 0.0
19/06:30pm 32.5 28.6 -4.4 9 16.8 N 7 13 4 7 1019.7 1019.2 0.0
19/06:00pm 33.2 28.8 -5.5 8 17.3 NW 9 17 5 9 1019.5 1019.0 0.0
19/05:30pm 33.2 29.0 -3.9 9 17.1 S 9 13 5 7 1019.4 1018.9 0.0
19/05:00pm 33.7 28.6 -5.1 8 17.6 WNW 13 22 7 12 1019.3 1018.8 0.0
19/04:30pm 32.8 28.6 -4.2 9 16.9 NE 9 15 5 8 1019.5 1019.0 0.0
19/04:00pm 33.1 26.8 -5.5 8 17.3 NNW 19 26 10 14 1019.7 1019.2 0.0
19/03:30pm 32.7 28.1 -4.3 9 16.9 N 11 13 6 7 1020.1 1019.6 0.0
19/03:00pm 31.7 26.6 -5.0 9 16.4 N 13 22 7 12 1020.5 1020.0 0.0
19/02:30pm 31.9 26.2 -3.5 10 16.3 NNE 17 24 9 13 1020.9 1020.3 0.0
19/02:00pm 32.1 25.9 -4.7 9 16.5 NNE 19 28 10 15 1021.4 1020.8 0.0
19/01:30pm 30.7 24.9 -4.4 10 15.7 N 17 28 9 15 1022.0 1021.4 0.0
19/01:00pm 30.7 25.8 -3.1 11 15.4 N 13 26 7 14 1022.4 1021.8 0.0
19/12:30pm 30.3 24.8 -2.2 12 15.1 N 17 24 9 13 1022.6 1022.0 0.0
19/12:00pm 29.5 23.8 -0.8 14 14.3 NNE 19 30 10 16 1022.9 1022.4 0.0
19/11:30am 29.2 23.2 0.8 16 13.8 NNE 22 32 12 17 1023.3 1022.8 0.0
19/11:00am 28.6 22.2 1.2 17 13.3 NNE 24 37 13 20 1023.5 1023.0 0.0

Other Formats:

Comma delimited format used in spreadsheet applications
http://www.bom.gov.au/fwo/IDN60801/IDN60801.94686.axf

JavaScript Object Notation format (JSON) in row-major order
http://www.bom.gov.au/fwo/IDN60801/IDN60801.94686.json